TimePDT,TemperatureF,Dew PointF,Humidity,Sea Level PressureIn,VisibilityMPH,Wind Direction,Wind SpeedMPH,Gust SpeedMPH,PrecipitationIn,Events,Conditions,WindDirDegrees,DateUTC
12:53 AM,43.0,41.0,93,30.01,10.0,SW,5.8,-,0.00,,Scattered Clouds,220,2012-10-13 07:53:00
1:53 AM,41.0,39.9,96,30.04,10.0,SSE,4.6,-,N/A,,Clear,150,2012-10-13 08:53:00
2:53 AM,39.0,37.9,96,30.06,10.0,SE,4.6,-,N/A,,Clear,140,2012-10-13 09:53:00
3:53 AM,37.0,36.0,96,30.08,10.0,South,8.1,-,N/A,,Clear,170,2012-10-13 10:53:00
4:53 AM,37.0,36.0,96,30.12,10.0,South,8.1,-,N/A,,Clear,180,2012-10-13 11:53:00
5:53 AM,36.0,35.1,97,30.15,10.0,SSE,9.2,-,N/A,,Clear,160,2012-10-13 12:53:00
6:53 AM,35.1,35.1,100,30.19,10.0,South,8.1,-,N/A,,Clear,170,2012-10-13 13:53:00
7:53 AM,37.9,37.0,97,30.20,10.0,South,9.2,-,N/A,,Clear,190,2012-10-13 14:53:00
8:53 AM,46.0,43.0,89,30.19,10.0,SSE,8.1,-,N/A,,Clear,160,2012-10-13 15:53:00
9:53 AM,52.0,44.1,74,30.17,10.0,Calm,Calm,-,N/A,,Clear,0,2012-10-13 16:53:00
10:53 AM,57.0,39.9,53,30.15,10.0,Calm,Calm,-,N/A,,Clear,0,2012-10-13 17:53:00
11:53 AM,57.9,37.9,47,30.14,10.0,ENE,5.8,-,N/A,,Clear,60,2012-10-13 18:53:00
12:53 PM,59.0,37.0,44,30.15,10.0,NW,8.1,-,N/A,,Clear,320,2012-10-13 19:53:00
1:53 PM,59.0,34.0,39,30.15,10.0,NW,13.8,-,N/A,,Mostly Cloudy,310,2012-10-13 20:53:00
2:53 PM,61.0,37.0,41,30.15,10.0,North,8.1,-,N/A,,Mostly Cloudy,360,2012-10-13 21:53:00
3:53 PM,61.0,37.0,41,30.17,10.0,NNW,10.4,-,N/A,,Mostly Cloudy,340,2012-10-13 22:53:00
4:53 PM,57.2,39.2,51,30.30,10.0,NNE,5.8,-,N/A,,Clear,30,2012-10-13 23:53:00
5:53 PM,55.0,39.9,57,30.19,10.0,NNE,5.8,-,N/A,,Clear,30,2012-10-14 00:53:00
6:53 PM,48.0,39.9,74,30.24,10.0,SE,3.5,-,N/A,,Clear,130,2012-10-14 01:53:00
7:53 PM,45.0,39.0,80,30.27,10.0,Calm,Calm,-,N/A,,Clear,0,2012-10-14 02:53:00
8:53 PM,42.8,35.6,76,30.36,10.0,Calm,Calm,-,N/A,,Clear,0,2012-10-14 03:53:00
9:53 PM,39.2,35.6,87,30.37,10.0,Calm,Calm,-,N/A,,Clear,0,2012-10-14 04:53:00
10:53 PM,37.9,35.1,89,30.25,10.0,SSE,9.2,-,N/A,,Clear,150,2012-10-14 05:53:00
11:53 PM,37.0,35.1,93,30.25,10.0,South,9.2,-,N/A,,Clear,170,2012-10-14 06:53:00